Location: Jackson
(42.2460°N, 84.4010°W)
Time: 19:15:24
(UTC-04:00)

Courier 1B Rocket - Pass Details

Date: 10 February 2026
Orbit: 920 x 1201 km, 28.2° (Epoch: 13 March)

Event Time Altitude Azimuth Distance (km) Brightness Sun altitude
Rises 22:28:53 0° 223° (SW) 3,690 - -48.3°
Reaches altitude 10° 22:32:18 10° 206° (SSW) 2,793 - -48.8°
Maximum altitude 22:36:54 19° 163° (SSE) 2,257 - -49.5°
Drops below altitude 10° 22:41:43 10° 121° (ESE) 2,941 - -50.2°
Sets 22:45:25 0° 105° (ESE) 3,953 - -50.8°
